[[{"header":{"parameterUnit":"m.s-1","parameterCategory":1,"la1":30.2991,"la2":30.254,"lo1":-89.0895,"lo2":-89.0444,"dy":0.0017,"dx":0.0017,"nx":28,"ny":28,"refTime":"2023-11-08T03:00:00:Z","depth":0,"parameterNumber":2,"parameterNumberName":"U-component_of_WINDS"},"data":[0,0,0,0,0,0,0,0,0,0,0,0,0,0,0,0,0,0,0,0,0,0,0,0,0,0,0,0,0,0,0,0,0,0,0,0,0,0,0,0,0,0,0,0,0,0,0,0,0,0,0,0,0,0,0,0,0,0,-0.4993,-0.4992,0,-0.4942,-0.4942,-0.4941,-0.4854,-0.4853,-0.4851,-0.4849,-0.4803,-0.4803,-0.4803,0,0,0,0,0,0,0,0,0,0,0,0,0,-0.5021,-0.5021,-0.4993,-0.4992,-0.4992,-0.4942,-0.4942,-0.4941,-0.4855,-0.4853,-0.4851,-0.4849,-0.4802,-0.4803,-0.4803,0,0,0,0,0,0,0,0,0,0,0,0,0,-0.4994,-0.5021,-0.4993,-0.4942,-0.4937,-0.4943,-0.4942,-0.4941,-0.4855,-0.4852,-0.485,-0.4848,-0.4802,-0.4803,-0.4803,-0.4855,0,0,-0.4805,-0.4805,0,0,0,0,0,0,0,0,-0.4995,-0.4993,-0.495,-0.4946,-0.494,-0.4902,-0.4934,-0.4912,-0.4856,-0.4886,-0.4849,-0.4847,-0.4838,-0.4835,-0.4831,-0.4853,-0.4851,-0.4805,-0.4805,-0.4805,-0.4805,0,0,0,0,0,0,0,-0.4997,-0.4995,-0.4973,-0.495,-0.4944,-0.4925,-0.4918,-0.493,-0.4877,-0.4884,-0.4877,-0.4872,-0.4835,-0.4831,-0.483,-0.485,-0.4805,-0.4805,-0.4805,-0.4805,-0.4917,-0.4919,0,0,0,0,0,0,-0.5006,-0.4997,-0.4975,-0.4971,-0.4962,-0.4926,-0.4919,-0.4917,-0.4876,-0.4868,-0.4874,-0.4868,-0.4832,-0.4829,-0.4828,-0.4889,-0.4805,-0.4805,-0.4806,-0.4914,-0.4917,-0.492,0,0,0,0,0,0,-0.5007,-0.5005,-0.4977,-0.4982,-0.4977,-0.4928,-0.4927,-0.4917,-0.4913,-0.4869,-0.486,-0.488,-0.483,-0.4827,-0.485,-0.4886,-0.4806,-0.4806,-0.4911,-0.4915,-0.4919,-0.501,0,0,0,0,0,0,-0.5008,-0.5006,-0.5023,-0.4983,-0.4977,-0.4998,-0.4929,-0.4918,-0.4914,-0.4905,-0.4872,-0.4864,-0.4828,-0.485,-0.485,-0.4885,-0.4806,-0.4907,-0.4913,-0.4918,-0.5003,-0.5017,-0.5028,0,0,0,0,0,-0.5009,-0.5051,-0.5024,-0.5022,-0.4998,-0.5,-0.4996,-0.4952,-0.4917,-0.4936,-0.4908,-0.4865,-0.4882,-0.4853,-0.4852,-0.4888,-0.4905,-0.4911,-0.4917,-0.4998,-0.5014,-0.5027,0,0,0,0,0,0,-0.5097,-0.5045,-0.5015,-0.5044,-0.5027,-0.4985,-0.5007,-0.497,-0.4963,-0.4956,-0.4902,-0.4896,-0.4926,-0.4909,-0.4878,-0.4939,-0.4887,-0.4893,-0.4949,-0.4963,-0.4975,-0.498,-0.4807,0,0,0,0,0,-0.5119,-0.5123,-0.5078,-0.5109,-0.5102,-0.5056,-0.5055,-0.5023,-0.5003,-0.4996,-0.497,-0.4954,-0.4956,-0.4959,-0.4957,-0.5,-0.4994,-0.5025,-0.5037,-0.5048,-0.5054,-0.508,-0.5094,-0.494,-0.494,-0.494,0,0,-0.5166,-0.5138,-0.5144,-0.5126,-0.5108,-0.5117,-0.505,-0.5061,-0.5067,-0.4998,-0.5018,-0.4999,-0.4978,-0.5012,-0.5026,-0.4999,-0.5096,-0.5055,-0.5064,-0.5065,-0.5088,-0.5102,-0.5115,-0.4944,-0.4944,-0.4943,0,0,-0.5256,-0.5234,-0.5259,-0.5243,-0.5218,-0.5188,-0.5194,-0.5159,-0.5143,-0.5162,-0.5111,-0.5119,-0.5122,-0.5111,-0.5106,-0.5196,-0.5158,-0.5197,-0.5261,-0.5286,-0.5299,-0.5309,-0.5344,-0.5357,-0.5203,-0.5204,-0.5204,0,-0.5318,-0.5326,-0.5276,-0.5291,-0.5286,-0.5223,-0.525,-0.5237,-0.5214,-0.5214,-0.5183,-0.5189,-0.517,-0.5203,-0.5225,-0.5221,-0.523,-0.5201,-0.53,-0.5311,-0.532,-0.5353,-0.5366,-0.5209,-0.5208,-0.5208,-0.5207,0,-0.5405,-0.5412,-0.5436,-0.5414,-0.5412,-0.5432,-0.5388,-0.5392,-0.5361,-0.5335,-0.5358,-0.5334,-0.5328,-0.5333,-0.5302,-0.5363,-0.5347,-0.531,-0.5257,-0.534,-0.5371,-0.5383,-0.5216,-0.5214,-0.5213,-0.5211,0,0,-0.5548,-0.5501,-0.551,-0.5502,-0.5471,-0.5476,-0.5496,-0.549,-0.5496,-0.5483,-0.55,-0.5506,-0.5472,-0.5466,-0.5434,-0.5456,-0.5533,-0.5415,-0.5414,-0.5441,-0.5602,-0.5632,-0.5647,-0.5507,-0.5509,-0.5511,-0.5605,0,-0.5633,-0.5662,-0.5619,-0.5659,-0.5667,-0.5609,-0.5626,-0.5611,-0.5588,-0.5594,-0.5569,-0.5575,-0.5528,-0.5525,-0.5544,-0.5519,-0.5565,-0.5512,-0.5526,-0.5527,-0.5534,-0.5662,-0.5693,-0.5783,-0.5616,-0.5618,-0.5619,0,-0.5736,-0.5728,-0.5769,-0.5739,-0.574,-0.5757,-0.575,-0.5754,-0.5738,-0.572,-0.5715,-0.5677,-0.5697,-0.5645,-0.5675,-0.564,-0.5643,-0.5632,-0.5635,-0.5636,-0.5579,-0.567,-0.581,-0.5825,-0.5637,-0.5635,-0.5634,0,-0.584,-0.584,-0.5864,-0.5858,-0.5823,-0.5837,-0.5823,-0.5803,-0.5804,-0.5798,-0.5799,-0.5796,-0.5796,-0.5796,-0.576,-0.5725,-0.5795,-0.5739,-0.5784,-0.5785,-0.5802,-0.5802,-0.5948,-0.5801,-0.5801,-0.58,-0.58,0,-0.5941,-0.5969,-0.5911,-0.5927,-0.5958,-0.5909,-0.5942,-0.5923,-0.5906,-0.5919,-0.5869,-0.5883,-0.5833,-0.5843,-0.5814,-0.5845,-0.5844,-0.5833,-0.5826,-0.5839,-0.5841,-0.5841,-0.5835,-0.5804,-0.5803,-0.5802,-0.5802,0,-0.6063,-0.6024,-0.6048,-0.6014,-0.6006,-0.603,-0.6002,-0.6016,-0.5991,-0.6009,-0.601,-0.5971,-0.598,-0.5943,-0.5946,-0.5927,-0.5974,-0.5955,-0.598,-0.5975,-0.6022,-0.6019,-0.6175,-0.6195,-0.6034,-0.6035,-0.6036,0,-0.6131,-0.6151,-0.6119,-0.6123,-0.6112,-0.612,-0.612,-0.6075,-0.6078,-0.6062,-0.608,-0.6084,-0.6086,-0.6104,-0.6077,-0.608,-0.6062,-0.6117,-0.6063,-0.6076,-0.6067,-0.6067,-0.6071,-0.6129,-0.6131,-0.6132,-0.6134,0,-0.6256,-0.6237,-0.6239,-0.6235,-0.6237,-0.6232,-0.6224,-0.6231,-0.6183,-0.6189,-0.6197,-0.6199,-0.6202,-0.6209,-0.6207,-0.6195,-0.6158,-0.6151,-0.6162,-0.6177,-0.6191,-0.6187,-0.6013,-0.6148,-0.6146,-0.6145,-0.6145,-0.6144,-0.6355,-0.6371,-0.6352,-0.6357,-0.6346,-0.634,-0.6353,-0.633,-0.6336,-0.6334,-0.6308,-0.6322,-0.6308,-0.6301,-0.6294,-0.6307,-0.6282,-0.6297,-0.6301,-0.6306,-0.6316,-0.6188,-0.6306,-0.6305,-0.6305,-0.6305,-0.6304,0,-0.6481,-0.6466,-0.647,-0.6461,-0.6466,-0.6429,-0.6419,-0.6426,-0.6439,-0.6428,-0.6431,-0.6443,-0.645,-0.6424,-0.6428,-0.6444,-0.6427,-0.6447,-0.6446,-0.6445,-0.6336,-0.6328,-0.646,-0.646,-0.646,-0.646,-0.646,-0.646,-0.6547,-0.6574,-0.6553,-0.6576,-0.6561,-0.6574,-0.6572,-0.6568,-0.656,-0.6575,-0.658,-0.6563,-0.6548,-0.6551,-0.6557,-0.655,-0.6555,-0.6581,-0.6569,-0.6467,-0.6452,-0.6438,-0.643,-0.6582,-0.6582,-0.6677,-0.6678,-0.6678]},{"header":{"parameterUnit":"m.s-1","parameterCategory":1,"la1":30.2991,"la2":30.254,"lo1":-89.0895,"lo2":-89.0444,"dy":0.0017,"dx":0.0017,"nx":28,"ny":28,"refTime":"2023-11-08T03:00:00:Z","depth":0,"parameterNumber":3,"parameterNumberName":"V-component_of_WINDS"},"data":[0,0,0,0,0,0,0,0,0,0,0,0,0,0,0,0,0,0,0,0,0,0,0,0,0,0,0,0,0,0,0,0,0,0,0,0,0,0,0,0,0,0,0,0,0,0,0,0,0,0,0,0,0,0,0,0,0,0,-0.9047,-0.9047,0,-0.9056,-0.9056,-0.9056,-0.8989,-0.8987,-0.8985,-0.8984,-0.8996,-0.8998,-0.9,0,0,0,0,0,0,0,0,0,0,0,0,0,-0.8971,-0.8972,-0.9047,-0.9047,-0.9047,-0.9056,-0.9056,-0.9056,-0.899,-0.8987,-0.8985,-0.8983,-0.8996,-0.8998,-0.9001,0,0,0,0,0,0,0,0,0,0,0,0,0,-0.8994,-0.8973,-0.9047,-0.9015,-0.9012,-0.9056,-0.9056,-0.9057,-0.899,-0.8987,-0.8984,-0.8982,-0.8995,-0.8998,-0.9001,-0.9078,0,0,-0.9011,-0.9012,0,0,0,0,0,0,0,0,-0.8993,-0.8997,-0.9019,-0.9017,-0.9014,-0.9018,-0.9034,-0.9064,-0.8991,-0.8998,-0.8984,-0.898,-0.9006,-0.9008,-0.9016,-0.9078,-0.9079,-0.9011,-0.9013,-0.9014,-0.9015,0,0,0,0,0,0,0,-0.8992,-0.8997,-0.9051,-0.902,-0.9016,-0.9,-0.9,-0.9039,-0.9018,-0.8998,-0.8993,-0.8994,-0.9004,-0.9013,-0.9016,-0.9079,-0.9011,-0.9014,-0.9016,-0.9017,-0.9198,-0.9201,0,0,0,0,0,0,-0.8994,-0.8996,-0.905,-0.9051,-0.8996,-0.9003,-0.9004,-0.902,-0.9018,-0.9014,-0.8997,-0.8991,-0.9009,-0.9013,-0.9016,-0.9102,-0.9014,-0.9017,-0.9019,-0.9195,-0.9199,-0.9202,0,0,0,0,0,0,-0.8993,-0.9,-0.905,-0.9022,-0.9027,-0.9008,-0.9027,-0.9022,-0.9031,-0.9017,-0.9013,-0.901,-0.9007,-0.9012,-0.9061,-0.9102,-0.9019,-0.9021,-0.9192,-0.9196,-0.92,-0.9277,0,0,0,0,0,0,-0.8991,-0.9,-0.9029,-0.9023,-0.9029,-0.9095,-0.9029,-0.9024,-0.9036,-0.9029,-0.9029,-0.9026,-0.9005,-0.9057,-0.9065,-0.9105,-0.9024,-0.9188,-0.9194,-0.9199,-0.927,-0.9283,-0.9294,0,0,0,0,0,-0.8988,-0.9052,-0.9031,-0.9038,-0.9065,-0.9098,-0.9101,-0.9076,-0.904,-0.9068,-0.9059,-0.9026,-0.9096,-0.9063,-0.9071,-0.9112,-0.9185,-0.9192,-0.9199,-0.9265,-0.9281,-0.9294,0,0,0,0,0,0,-0.9066,-0.9051,-0.9027,-0.9091,-0.9096,-0.9086,-0.9122,-0.9094,-0.911,-0.9103,-0.9071,-0.9071,-0.9125,-0.9124,-0.9087,-0.9183,-0.9134,-0.9143,-0.9182,-0.9197,-0.9208,-0.9207,-0.9027,0,0,0,0,0,-0.909,-0.9117,-0.9103,-0.916,-0.9164,-0.9143,-0.9156,-0.9135,-0.914,-0.9142,-0.9136,-0.9142,-0.9165,-0.9181,-0.9202,-0.927,-0.9267,-0.9302,-0.9314,-0.9323,-0.9331,-0.9362,-0.9376,-0.9223,-0.9223,-0.9223,0,0,-0.9141,-0.9136,-0.9156,-0.9176,-0.9177,-0.9205,-0.9145,-0.9179,-0.9199,-0.9148,-0.9193,-0.9188,-0.9193,-0.925,-0.9276,-0.9251,-0.9372,-0.9332,-0.934,-0.9342,-0.937,-0.9385,-0.9397,-0.9228,-0.9227,-0.9226,0,0,-0.9247,-0.9248,-0.9293,-0.9294,-0.9296,-0.9281,-0.9292,-0.9286,-0.928,-0.9324,-0.9284,-0.9308,-0.935,-0.9352,-0.936,-0.9462,-0.9431,-0.9469,-0.9531,-0.9561,-0.9573,-0.9584,-0.9617,-0.963,-0.9477,-0.9477,-0.9477,0,-0.9311,-0.9351,-0.9321,-0.9355,-0.9364,-0.9315,-0.936,-0.9364,-0.9373,-0.938,-0.9351,-0.9398,-0.9398,-0.9454,-0.9478,-0.9486,-0.9496,-0.9469,-0.9574,-0.9584,-0.9594,-0.9625,-0.9638,-0.9482,-0.9481,-0.9481,-0.948,0,-0.9427,-0.9456,-0.9493,-0.9499,-0.9512,-0.9552,-0.9526,-0.9543,-0.952,-0.9507,-0.955,-0.9548,-0.9565,-0.9576,-0.9556,-0.9628,-0.9612,-0.958,-0.9529,-0.9613,-0.9642,-0.9654,-0.9488,-0.9487,-0.9485,-0.9484,0,0,-0.9586,-0.9571,-0.9585,-0.9585,-0.9581,-0.9602,-0.9639,-0.9653,-0.9666,-0.9674,-0.9702,-0.9735,-0.9703,-0.9711,-0.969,-0.9717,-0.9793,-0.9681,-0.968,-0.9699,-0.9868,-0.9891,-0.9905,-0.9773,-0.9775,-0.9777,-0.9866,0,-0.9687,-0.9747,-0.9718,-0.9781,-0.9805,-0.9757,-0.9788,-0.9789,-0.9777,-0.9795,-0.9782,-0.9805,-0.9763,-0.9767,-0.9791,-0.9779,-0.9826,-0.9772,-0.9797,-0.9798,-0.9796,-0.9921,-0.9947,-1.0032,-0.9878,-0.988,-0.9881,0,-0.9814,-0.9822,-0.9887,-0.9874,-0.9883,-0.9912,-0.992,-0.9939,-0.9937,-0.9926,-0.9932,-0.9903,-0.9936,-0.9886,-0.9929,-0.9893,-0.9901,-0.9896,-0.9898,-0.9899,-0.9844,-0.9922,-1.0059,-1.007,-0.9899,-0.9898,-0.9896,0,-0.9919,-0.9947,-0.9988,-0.999,-0.9977,-0.9997,-0.9993,-0.9988,-0.9997,-1.0004,-1.0009,-1.0022,-1.0028,-1.0037,-1.0011,-0.9978,-1.0056,-1.0006,-1.0046,-1.0047,-1.0065,-1.0064,-1.0202,-1.0073,-1.0073,-1.0073,-1.0073,0,-1.0034,-1.0075,-1.0034,-1.0059,-1.0102,-1.0068,-1.0112,-1.0102,-1.0097,-1.0119,-1.0079,-1.01,-1.0065,-1.0082,-1.0062,-1.0099,-1.0103,-1.0093,-1.0087,-1.0096,-1.0097,-1.01,-1.0093,-1.0076,-1.0076,-1.0075,-1.0074,0,-1.0159,-1.0133,-1.0174,-1.0156,-1.0153,-1.0185,-1.017,-1.0192,-1.0175,-1.0203,-1.0207,-1.0182,-1.0199,-1.0174,-1.019,-1.0176,-1.0225,-1.0211,-1.0225,-1.022,-1.0261,-1.0257,-1.0405,-1.0421,-1.0285,-1.0286,-1.0287,0,-1.0233,-1.0263,-1.0247,-1.0257,-1.0254,-1.0273,-1.028,-1.0246,-1.0256,-1.0253,-1.0275,-1.0288,-1.0297,-1.0327,-1.0309,-1.032,-1.0304,-1.0355,-1.0306,-1.0312,-1.0302,-1.0299,-1.03,-1.0365,-1.0367,-1.0369,-1.037,0,-1.0367,-1.0351,-1.0363,-1.037,-1.0379,-1.0383,-1.0385,-1.0396,-1.036,-1.0372,-1.0388,-1.0395,-1.0408,-1.0421,-1.0426,-1.042,-1.0388,-1.0385,-1.0394,-1.0403,-1.0409,-1.0403,-1.0251,-1.0382,-1.0381,-1.038,-1.0379,-1.0379,-1.0467,-1.0489,-1.048,-1.0493,-1.0489,-1.049,-1.0508,-1.0492,-1.0505,-1.0512,-1.0491,-1.0511,-1.0504,-1.0507,-1.0505,-1.0519,-1.0497,-1.0511,-1.0515,-1.0518,-1.0523,-1.0407,-1.052,-1.052,-1.052,-1.0519,-1.0519,0,-1.0596,-1.0586,-1.0599,-1.0599,-1.0609,-1.0576,-1.0575,-1.0585,-1.0603,-1.0598,-1.0606,-1.0623,-1.0634,-1.0616,-1.0623,-1.0638,-1.0623,-1.0641,-1.0638,-1.0637,-1.0545,-1.0534,-1.0652,-1.0652,-1.0652,-1.0652,-1.0652,-1.0652,-1.0664,-1.0698,-1.0681,-1.0712,-1.0702,-1.072,-1.0721,-1.0721,-1.0717,-1.0736,-1.0744,-1.0731,-1.0721,-1.0726,-1.0734,-1.0728,-1.0731,-1.0754,-1.0743,-1.0657,-1.0644,-1.0631,-1.0621,-1.0756,-1.0756,-1.0833,-1.0834,-1.0835]}]]